Wind_Speed
14 14 14 15 15 15 14 13 11 11 11 10 9 9 9 9 9 9 9 9 11 12 13 14 15 15 16 16 17 18 19 20 22 22 22 22 22 23 23 23 23 23 23
16 16 16 16 16 16 16 14 13 12 12 11 10 9 9 9 10 10 10 11 12 13 14 15 16 16 17 18 18 18 19 20 21 21 22 22 23 24 24 24 25 25 26
18 18 18 18 18 18 18 16 15 14 14 13 11 11 10 10 11 11 12 12 13 14 15 16 17 18 19 20 19 19 19 19 20 20 21 22 23 24 25 26 26 27 28
19 19 19 19 19 19 19 18 16 16 15 14 13 12 11 11 12 12 12 13 13 14 15 17 18 19 20 21 20 20 20 20 20 21 22 23 24 25 26 27 27 27 28
21 20 20 20 20 20 19 19 18 17 16 15 14 14 13 13 13 13 13 14 14 14 14 15 16 17 19 20 21 21 22 23 23 24 25 25 26 27 27 27 27 28 28
23 23 23 22 21 21 20 19 18 17 17 16 16 15 15 14 14 14 14 14 14 14 15 15 16 17 18 19 20 21 22 22 24 25 26 26 27 27 27 27 27 27 28
25 25 26 25 24 23 21 20 19 18 18 17 17 17 16 15 15 14 14 15 15 15 15 15 16 17 18 19 20 21 22 23 24 25 26 27 28 28 28 28 29 29 29
25 26 26 27 27 25 22 21 20 19 19 19 19 19 18 17 16 15 15 15 15 14 14 14 15 16 16 17 18 18 19 20 20 21 22 24 25 26 26 27 28 29 30
24 25 26 27 27 25 23 21 21 20 20 20 20 20 20 18 18 17 16 16 15 15 15 15 16 18 19 20 21 22 23 23 22 22 23 23 24 25 26 27 29 30 31
24 24 25 26 25 24 23 22 21 21 21 21 21 22 21 20 20 20 19 18 18 18 18 19 20 22 24 25 27 28 28 27 26 26 26 26 27 27 28 29 30 31 32
27 26 27 27 26 26 24 23 22 21 21 22 23 23 23 23 22 22 22 21 21 21 21 22 23 24 26 27 27 27 27 26 26 26 27 28 29 30 30 31 32 33 34
30 29 29 29 29 28 27 26 24 22 22 23 24 25 25 25 25 24 24 23 24 23 24 24 25 26 26 25 23 22 21 21 21 23 25 27 28 29 31 33 33 34 34
33 31 31 31 31 30 30 29 27 25 23 23 24 26 27 28 27 26 26 25 25 26 26 26 27 27 26 25 22 21 20 21 22 24 25 27 28 30 32 33 34 35 35
34 33 32 33 34 33 33 31 30 28 26 25 25 27 29 30 29 28 27 27 27 27 27 27 28 28 27 25 24 23 23 24 25 27 29 31 33 34 36 36 36 36 35
35 34 34 34 35 36 36 35 34 32 30 28 28 29 30 30 30 29 28 28 28 28 28 29 29 29 29 28 26 26 27 28 30 32 33 35 37 38 38 37 37 36 36
36 36 35 35 35 36 37 37 36 35 33 31 30 31 31 31 30 29 28 29 29 29 29 30 30 30 31 30 29 30 31 32 33 35 36 37 38 38 37 36 36 36 37
37 37 36 36 36 36 36 37 37 36 35 34 33 32 31 31 30 29 29 29 30 30 31 31 31 32 32 31 31 32 33 35 36 37 38 39 39 38 37 37 37 38 39
38 39 38 37 37 37 37 37 36 36 36 36 35 33 33 32 31 30 30 30 31 31 31 32 33 34 34 33 33 34 35 36 38 39 39 40 40 40 39 39 40 41 42
39 41 40 39 38 38 37 37 36 36 36 36 36 35 34 33 32 32 31 32 32 32 33 33 34 34 34 34 34 35 36 38 39 40 41 42 42 42 42 43 44 45 46
40 42 42 41 40 39 38 36 35 35 36 37 36 35 35 35 34 33 33 34 34 34 34 35 35 35 35 35 36 37 39 40 41 42 44 45 45 45 46 47 49 50 51
42 42 42 42 43 42 40 37 36 36 37 38 37 36 36 35 35 35 35 35 35 35 35 36 36 36 37 38 40 41 42 43 45 46 47 48 47 48 49 51 52 54 55
43 43 43 43 44 44 42 40 38 38 38 38 37 36 35 35 35 36 37 37 37 37 38 38 38 39 40 41 43 45 47 47 48 50 50 50 51 51 53 55 57 59 60
44 44 44 43 44 45 44 42 40 40 39 38 36 35 35 36 36 37 38 38 39 40 40 41 41 42 43 44 46 47 49 50 50 50 52 53 54 55 57 59 61 64 65
46 45 44 43 44 45 44 43 41 41 40 38 37 36 36 37 37 38 39 40 41 42 43 43 44 45 46 47 49 50 52 53 53 50 50 52 55 57 60 62 65 67 69
49 47 45 44 44 44 44 42 42 41 40 38 37 37 37 38 39 39 40 41 42 43 44 45 46 47 49 50 51 52 53 54 55 55 53 54 56 58 61 63 66 69 71
51 49 46 44 44 44 43 42 41 41 40 39 37 38 38 39 39 40 41 42 43 44 45 46 48 49 50 52 53 54 54 55 56 57 58 58 59 61 63 65 66 68 70
Wind_Direction
258 258 255 253 253 254 255 255 261 267 273 274 266 256 251 249 249 253 260 265 268 270 271 272 273 274 276 276 277 278 277 275 269 267 268 271 275 277 278 279 281 281 280
255 255 253 251 254 257 260 262 267 271 275 275 269 262 257 253 250 253 259 262 264 265 267 268 270 273 275 276 277 277 276 274 271 269 270 272 275 277 278 280 281 281 281
251 252 252 251 252 256 259 263 268 273 276 275 271 267 265 261 257 256 259 262 262 262 263 265 267 270 272 275 276 276 275 274 273 272 273 275 276 278 280 282 283 283 281
249 251 252 251 251 253 257 261 265 270 274 273 271 268 268 268 264 261 260 261 262 262 262 264 266 268 271 273 274 274 273 273 273 273 273 274 275 278 280 282 283 283 282
251 254 256 254 252 252 254 258 262 267 270 269 268 265 266 267 266 263 262 262 262 263 265 267 269 271 273 274 274 274 275 275 275 275 276 276 278 279 280 282 284 284 283
256 259 260 259 255 253 253 256 259 262 263 263 262 260 261 263 263 261 262 263 264 265 267 269 271 274 276 278 279 280 281 282 282 282 281 281 281 282 283 284 285 286 284
257 260 261 261 259 256 255 256 257 259 259 258 258 257 257 260 262 261 263 264 264 264 267 270 274 278 280 282 283 283 283 283 283 282 282 282 282 282 283 283 284 284 283
257 261 262 262 262 261 260 258 257 257 256 255 256 256 256 257 259 259 261 263 263 264 268 273 276 278 281 283 285 287 287 286 284 283 283 283 283 283 283 283 282 281 281
256 260 261 261 261 262 262 261 260 259 258 257 256 255 253 254 255 256 256 257 259 262 267 272 276 280 282 284 285 286 286 286 285 285 284 284 284 284 284 283 282 281 280
253 256 255 254 255 257 259 260 261 261 260 259 258 256 253 253 254 255 255 256 259 263 269 276 283 288 289 289 288 285 283 282 282 283 284 285 286 286 286 284 284 282 281
249 251 251 248 248 251 254 256 260 262 262 261 260 258 254 253 254 255 256 258 261 266 273 280 286 291 293 293 292 289 285 283 283 284 284 285 285 286 286 286 286 285 283
247 248 248 246 246 248 250 253 256 260 262 262 262 260 258 256 255 257 258 260 263 268 275 281 287 291 294 293 293 291 289 287 287 287 287 286 286 286 286 286 286 285 284
248 247 246 245 244 245 248 251 255 259 262 264 263 262 261 259 259 259 260 261 265 270 275 281 287 290 292 291 290 289 289 289 289 289 289 290 290 289 289 288 287 285 283
251 251 248 245 244 244 246 250 254 258 262 265 265 263 262 261 261 261 262 263 266 270 275 281 285 288 290 287 286 285 286 288 290 291 292 292 293 293 292 290 288 286 284
251 252 250 248 247 247 248 250 253 256 260 263 265 264 263 262 261 261 262 263 266 270 275 280 284 286 287 285 283 283 285 289 291 293 294 295 295 295 293 291 288 286 285
249 249 250 250 250 250 252 254 256 258 261 262 263 264 265 264 263 262 262 263 266 270 274 278 281 284 286 285 283 282 285 289 292 294 295 296 297 296 294 291 288 286 284
246 247 248 250 251 252 253 255 258 260 262 262 263 264 265 265 264 263 262 263 265 269 273 276 280 283 284 283 282 282 285 288 291 293 295 296 296 295 292 290 288 286 284
244 245 247 249 250 252 254 256 258 260 261 262 262 262 263 264 263 262 262 264 266 269 273 277 281 284 284 283 282 283 285 288 291 293 294 295 295 293 290 288 287 285 284
243 244 245 247 249 251 254 257 260 261 261 261 261 260 260 261 261 261 262 264 267 270 274 279 283 285 285 284 283 284 286 289 291 293 294 294 293 290 288 286 285 284 282
244 244 244 245 247 250 253 257 260 262 262 262 261 259 258 258 260 261 262 263 267 271 275 280 283 286 287 286 286 287 289 291 293 294 294 293 291 289 287 285 284 283 282
246 246 245 244 245 248 251 255 258 260 262 263 262 260 259 258 259 260 261 263 267 271 276 280 283 286 288 288 289 290 292 294 295 295 294 292 289 288 287 286 285 285 285
246 246 246 244 244 246 249 252 256 259 262 264 264 263 261 260 260 260 262 264 268 272 275 279 283 286 288 289 290 293 295 296 296 296 294 292 290 289 288 288 288 288 287
245 245 246 244 244 246 248 251 255 258 261 263 265 264 262 262 261 262 264 266 269 272 276 280 283 286 287 289 290 292 294 295 295 295 294 293 293 292 291 291 291 291 291
243 243 244 244 245 246 248 251 254 257 260 262 262 263 262 262 263 265 267 268 271 274 278 281 284 286 288 289 291 292 292 293 293 291 289 290 290 291 292 292 292 292 292
240 240 241 242 244 245 247 250 253 257 261 263 265 265 263 263 264 266 268 271 274 276 279 282 285 287 289 290 291 292 292 293 293 292 291 290 290 290 290 291 291 291 291
238 238 239 240 242 244 246 249 253 257 260 263 265 265 264 264 265 267 270 273 275 277 280 283 286 288 289 290 292 293 293 293 293 293 294 293 292 292 292 291 291 292 292
Height
5855 5855 5855 5856 5857 5858 5858 5858 5858 5857 5857 5856 5855 5855 5855 5854 5854 5853 5852 5852 5852 5852 5851 5851 5851 5851 5851 5851 5851 5851 5851 5851 5851 5851 5851 5851 5851 5851 5851 5850 5850 5849 5849
5851 5851 5852 5853 5854 5854 5855 5855 5855 5854 5854 5853 5853 5852 5852 5852 5851 5851 5850 5850 5849 5849 5849 5848 5848 5848 5848 5848 5848 5848 5848 5848 5847 5847 5848 5848 5848 5848 5847 5847 5846 5845 5845
5847 5847 5848 5849 5850 5850 5851 5851 5852 5851 5851 5850 5850 5849 5849 5848 5848 5848 5847 5847 5847 5846 5846 5846 5845 5845 5845 5844 5844 5845 5845 5845 5844 5844 5844 5843 5843 5843 5843 5842 5841 5841 5840
5844 5844 5844 5845 5846 5846 5847 5847 5848 5848 5848 5847 5847 5846 5846 5845 5845 5845 5845 5845 5844 5844 5843 5843 5842 5842 5842 5841 5841 5841 5841 5841 5841 5840 5839 5839 5839 5838 5838 5837 5836 5836 5835
5840 5840 5841 5841 5842 5842 5843 5843 5844 5844 5844 5844 5843 5843 5843 5842 5842 5842 5842 5842 5841 5841 5840 5840 5839 5839 5838 5838 5838 5838 5837 5837 5837 5836 5835 5834 5834 5833 5832 5832 5831 5830 5830
5837 5837 5837 5838 5838 5838 5838 5839 5839 5840 5840 5840 5840 5840 5840 5839 5839 5839 5839 5838 5838 5838 5837 5837 5837 5836 5836 5835 5835 5834 5833 5833 5832 5831 5830 5829 5828 5827 5827 5826 5826 5825 5824
5833 5834 5834 5834 5834 5834 5834 5834 5835 5836 5836 5836 5836 5836 5836 5836 5836 5835 5835 5835 5835 5834 5834 5834 5834 5833 5833 5832 5831 5830 5829 5828 5827 5826 5825 5823 5823 5822 5821 5821 5820 5819 5818
5829 5829 5829 5829 5829 5830 5830 5830 5831 5831 5832 5832 5832 5833 5832 5832 5832 5832 5832 5831 5831 5831 5831 5831 5831 5830 5829 5828 5827 5826 5824 5823 5821 5820 5819 5818 5817 5816 5815 5814 5813 5812 5811
5824 5825 5825 5825 5825 5826 5826 5827 5827 5827 5828 5828 5828 5829 5829 5829 5828 5828 5828 5828 5828 5828 5828 5827 5827 5826 5825 5824 5822 5821 5820 5818 5816 5815 5814 5813 5812 5811 5810 5808 5807 5806 5805
5820 5820 5820 5820 5821 5821 5822 5822 5823 5823 5823 5824 5824 5825 5825 5825 5825 5825 5825 5825 5825 5825 5824 5823 5822 5821 5820 5819 5817 5815 5814 5812 5811 5809 5808 5807 5806 5805 5803 5802 5801 5799 5798
5815 5815 5815 5816 5816 5817 5817 5818 5818 5818 5819 5819 5819 5820 5820 5820 5820 5821 5821 5821 5821 5820 5820 5819 5818 5817 5815 5813 5811 5809 5807 5805 5804 5803 5802 5800 5799 5798 5797 5795 5794 5792 5791
5809 5810 5810 5811 5812 5812 5813 5813 5813 5814 5814 5814 5815 5815 5815 5815 5816 5816 5816 5816 5816 5816 5815 5814 5813 5811 5809 5807 5805 5803 5801 5799 5797 5797 5795 5794 5793 5792 5790 5788 5787 5785 5784
5803 5805 5805 5806 5806 5807 5808 5808 5809 5809 5809 5810 5810 5810 5810 5810 5810 5811 5811 5811 5811 5810 5810 5809 5807 5806 5804 5802 5800 5798 5796 5794 5792 5791 5790 5788 5786 5785 5783 5781 5779 5778 5776
5798 5799 5800 5801 5801 5802 5802 5803 5804 5804 5805 5805 5805 5804 5804 5804 5805 5805 5805 5805 5805 5804 5804 5803 5801 5800 5798 5796 5795 5793 5791 5789 5787 5785 5783 5781 5780 5778 5776 5773 5771 5769 5768
5792 5793 5794 5795 5796 5796 5797 5798 5798 5799 5800 5800 5799 5799 5798 5799 5799 5800 5799 5799 5799 5798 5797 5796 5795 5794 5792 5790 5789 5787 5785 5783 5781 5779 5776 5774 5772 5770 5767 5765 5763 5761 5759
5785 5786 5787 5788 5789 5790 5791 5792 5793 5794 5794 5794 5794 5793 5793 5793 5794 5794 5793 5793 5792 5792 5791 5790 5789 5788 5786 5784 5782 5780 5778 5776 5774 5771 5769 5766 5764 5761 5759 5756 5754 5752 5751
5777 5778 5780 5781 5782 5784 5785 5786 5787 5788 5789 5788 5788 5788 5788 5788 5788 5788 5787 5787 5786 5785 5784 5783 5782 5781 5779 5777 5776 5774 5771 5769 5766 5764 5761 5758 5755 5753 5751 5748 5746 5744 5742
5770 5771 5773 5774 5775 5776 5778 5779 5780 5781 5782 5782 5782 5782 5782 5782 5782 5781 5781 5780 5779 5778 5778 5776 5775 5773 5771 5770 5768 5766 5764 5761 5758 5755 5752 5749 5747 5744 5742 5740 5737 5735 5733
5762 5764 5766 5767 5768 5769 5770 5772 5773 5774 5775 5775 5775 5775 5775 5775 5775 5775 5774 5773 5772 5772 5771 5769 5768 5766 5764 5762 5760 5758 5756 5753 5750 5747 5744 5741 5738 5735 5733 5730 5728 5726 5723
5754 5756 5758 5760 5762 5762 5763 5765 5766 5767 5767 5768 5768 5768 5768 5769 5768 5768 5767 5767 5766 5765 5764 5763 5761 5758 5756 5754 5752 5750 5747 5744 5741 5738 5735 5731 5728 5725 5722 5719 5717 5714 5712
5745 5747 5750 5752 5754 5755 5756 5758 5759 5760 5760 5760 5760 5761 5761 5761 5761 5761 5760 5760 5759 5758 5757 5755 5753 5752 5749 5746 5743 5741 5738 5735 5731 5728 5724 5721 5718 5715 5711 5708 5704 5701 5698
5737 5739 5741 5744 5746 5748 5749 5751 5752 5753 5752 5753 5753 5754 5754 5754 5754 5754 5753 5752 5752 5751 5749 5748 5746 5744 5741 5738 5735 5731 5728 5725 5721 5717 5713 5709 5706 5702 5699 5695 5690 5686 5683
5727 5730 5733 5735 5737 5739 5741 5743 5745 5745 5745 5746 5746 5747 5747 5746 5746 5746 5745 5745 5744 5743 5741 5739 5737 5735 5733 5730 5726 5723 5719 5715 5712 5708 5701 5696 5692 5688 5684 5679 5674 5669 5665
5716 5720 5723 5726 5729 5731 5733 5735 5737 5738 5738 5738 5739 5739 5739 5739 5739 5738 5737 5737 5735 5734 5733 5731 5728 5725 5722 5719 5716 5712 5708 5704 5701 5699 5695 5689 5683 5677 5671 5665 5659 5653 5648
5704 5708 5712 5716 5719 5722 5725 5727 5729 5730 5731 5731 5732 5732 5732 5732 5731 5730 5729 5728 5727 5725 5723 5721 5718 5715 5711 5708 5705 5701 5697 5692 5687 5684 5683 5678 5673 5666 5660 5653 5646 5639 5632
5691 5696 5701 5706 5710 5713 5716 5719 5721 5722 5723 5723 5724 5724 5724 5724 5723 5722 5721 5719 5718 5716 5714 5711 5708 5704 5701 5697 5693 5688 5684 5680 5675 5670 5666 5663 5658 5652 5645 5638 5631 5623 5615